[Iaude] MPEC A96: 2019 AZ3 [a=1.68,e=0.39,i=19.1,H=24.2]

mpec at mpcdb1.cfa.harvard.edu mpec at mpcdb1.cfa.harvard.edu
Sun Jan 6 18:15:17 EST 2019


M.P.E.C. 2019-A96                                Issued 2019 Jan. 6, 23:11 UT
 
     The Minor Planet Electronic Circulars contain information on unusual
         minor planets and routine data on comets.  They are published
    on behalf of Division F of the International Astronomical Union by the
          Minor Planet Center, Smithsonian Astrophysical Observatory,
                          Cambridge, MA 02138, U.S.A.

             Prepared using the Tamkin Foundation Computer Network

                              MPC at CFA.HARVARD.EDU
            URL https://www.minorplanetcenter.net/    ISSN 1523-6714


                                   2019 AZ3
 
Observations:
     K19A03Z  C2019 01 02.39301503 42 29.727+14 59 58.44         20.3 GVEA096F51
     K19A03Z  C2019 01 02.40425303 42 37.970+14 56 51.06               VEA096F51
     K19A03Z* C2019 01 05.37214 04 16 54.961+02 17 29.22         20.2 wUEA096F51
     K19A03Z  C2019 01 05.38284 04 17 01.065+02 15 01.52         20.8 wUEA096F51
     K19A03Z  C2019 01 05.39353 04 17 07.202+02 12 33.37         19.9 wUEA096F51
     K19A03Z  C2019 01 05.40404 04 17 13.252+02 10 08.47               UEA096F51
     K19A03Z pC2019 01 05.84645104 21 43.62 +00 29 40.3          20.6 GVEA096L01
     K19A03Z KC2019 01 05.84753504 21 44.19 +00 29 25.5          20.3 GVEA096L01
     K19A03Z KC2019 01 05.84881704 21 44.89 +00 29 08.7          20.3 GVEA096L01
     K19A03Z KC2019 01 05.85000004 21 45.56 +00 28 53.1          20.5 GVEA096L01
     K19A03Z KC2019 01 05.85118004 21 46.25 +00 28 37.3          20.3 GVEA096L01
     K19A03Z KC2019 01 06.17194304 24 52.47 -00 41 07.9          20.4 VuEA096H21
     K19A03Z KC2019 01 06.18005904 24 56.87 -00 42 52.8          20.5 VuEA096H21
     K19A03Z KC2019 01 06.19039604 25 02.50 -00 45 05.5          20.2 VuEA096H21
     K19A03Z KC2019 01 06.85859 04 31 19.76 -03 03 54.7          20.0  VEA096104
     K19A03Z KC2019 01 06.86157 04 31 21.33 -03 04 30.7          20.1  VEA096104
     K19A03Z KC2019 01 06.86455 04 31 22.90 -03 05 06.7          19.8  VEA096104
 
Observer details:
104 San Marcello Pistoiese.  Observers P. Bacci, M. Maestripieri.  Measurers
    P. Bacci, L. Tesi, G. Fagioli.  0.60-m reflector + CCD.
F51 Pan-STARRS 1, Haleakala.  Observers J. Bulger, K. Chambers, T. Lowe,
    E. Magnier, A. Schultz, M. Willman.  Measurers S. Chastel, M. Huber,
    Y. Ramanjooloo, R. Wainscoat, R. Weryk, K. Chambers, L. Denneau,
    J. Fairlamb, H. Flewelling, C.-C. Lin, E. Magnier.  1.8-m
    Ritchey-Chretien + CCD.
H21 Astronomical Research Observatory, Westfield.  Observer R. Holmes.
    Measurers S. Foglia, L. Buzzi, T. Linder, R. Holmes.  0.61-m f/4.5
    astrograph + CCD.
L01 Visnjan Observatory, Tican.  Observer K. Korlevic.  1.0-m f/2.9 reflector
    + CCD.
 
Orbital elements:
2019 AZ3                                                 Earth MOID = 0.0495 AU
Epoch 2019 Apr. 27.0 TT = JDT 2458600.5                 MPC
M  58.12934              (2000.0)            P               Q
n   0.45232235     Peri.  165.48695     +0.10393380     -0.94005560
a   1.6807535      Node   277.75637     +0.87671967     +0.24079707
e   0.3904982      Incl.   19.13507     +0.46963858     -0.24147926
P   2.18           H   24.2           G   0.15           U   7
Residuals in seconds of arc
190102 F51  1.1+  0.2-    190105 L01  0.6+  0.1+    190106 H21  0.3-  0.3-
190102 F51  1.2+  0.4-    190105 L01  0.0   0.3-    190106 H21  0.1-  0.0
190105 F51  0.4+  0.2-    190105 L01  0.2-  0.1-    190106 104  0.3-  0.2+
190105 F51  0.1-  0.2+    190105 L01  0.1-  0.0     190106 104  0.2+  0.1+
190105 F51  0.1-  0.1-    190105 L01  0.3+  0.1-    190106 104  0.7+  0.0
190105 F51  0.1+  0.2+    190106 H21  0.2-  0.1+

Ephemeris:
2019 AZ3                 a,e,i = 1.68, 0.39, 19                  q = 1.0244
Date    TT    R. A. (2000) Decl.     Delta      r     Elong.  Phase     V
2018 12 07    21 41 06.0 +59 03 13   0.1786  1.0328   100.5    69.7    23.0
...
2018 12 22    00 28 06.8 +53 56 18   0.09564 1.0247   112.9    62.1    21.4
...
2018 12 30    02 53 05.6 +30 41 15   0.07033 1.0304   130.5    46.5    20.3
...
2019 01 05    04 13 04.3 +03 45 23   0.07683 1.0392   135.2    41.8    20.3
2019 01 06    04 23 13.3 -00 02 35   0.08009 1.0410   134.5    42.3    20.5
2019 01 07    04 32 36.1 -03 30 41   0.08384 1.0429   133.6    43.0    20.6
...
2019 01 13    05 16 03.2 -18 01 19   0.1134  1.0565   127.6    47.5    21.4
...
2019 01 21    05 52 28.0 -26 49 41   0.1623  1.0797   122.4    50.3    22.3
...
2019 02 05    06 33 02.0 -31 26 17   0.2628  1.1366   119.0    49.4    23.4

A. U. Tomatic                (C) Copyright 2019 MPC           M.P.E.C. 2019-A96



More information about the Iaude mailing list